User: anonymous   Login
Location: Waldport
(44.4270°N, 124.0680°W)
Time: 18:32:02
(UTC-07:00)
Language:

Cosmos 1023 Rocket - Orbit

View from above orbital plane
View from above orbital plane
View from above satellite
View from above satellite

Ground track
Ground track

The orbit data is extracted from the following two-line orbital elements,

1 10962U 78063B   15151.45261227  .00000385  00000-0  12770-3 0  9990
2 10962 074.0783 159.1118 0026563 255.3054 104.5157 14.40906551938166
Epoch (UTC): 31 May 2015 10:51:45
Eccentricity: 0.0026563
inclination: 74.0783°
perigee height: 736 km
apogee height: 774 km
right ascension of ascending node: 159.1118°
argument of perigee: 255.3054°
revolutions per day: 14.40906551
mean anomaly at epoch: 104.5157°
orbit number at epoch: 93816

The dashed part of the orbit path shows where the satellite is in the earth's shadow,  

DLR